Regional Weather Roundup
Issued by NWS

Home | Current Version | Previous Version | Text Only | Print | Product List | Glossary On
Versions: 1 2 3 4 5 6 7 8 9 10 11 12 13 14 15 16 17 18 19 20 21 22 23 24 25 26 27 28 29 30 31 32 33 34 35 36 37 38 39 40 41 42 43 44 45 46 47 48 49 50
000
ASUS42 KFFC 290803
RWRGA
WEATHER ROUNDUP FOR GEORGIA
NATIONAL WEATHER SERVICE PEACHTREE CITY GA
400 AM EDT FRI AUG 29 2014

NOTE: "FAIR" INDICATES FEW OR NO CLOUDS BELOW 12,000 FEET WITH NO
SIGNIFICANT WEATHER AND/OR OBSTRUCTIONS TO VISIBILITY.

* = USE WITH CAUTION. THE STATIONS MARKED WITH AN ASTERISK MAY NOT
REPORT WEATHER SUCH AS PRECIPITATION, FOG, OR THUNDER AND ARE NOT
QUALITY CONTROLLED BY NWS.

THE REMARK "TC" DENOTES TEMPERATURE READING IN DEGREES CELSIUS.

GAZ001>058-290900-
NORTH GEORGIA

CITY           SKY/WX    TMP DP  RH WIND       PRES   REMARKS
ATLANTA        PTCLDY    74  59  59 CALM      30.04R
ATHENS         CLEAR     66  60  81 CALM      30.04S
CHAMBLEE       CLEAR     65  61  87 CALM      30.04S
PEACHTREE CITY CLEAR     63  61  93 CALM      30.04S
ROME           CLEAR     64  62  93 CALM      30.02S
WEST ATLANTA   CLEAR     65  61  87 CALM      30.03S
GAINESVILLE    CLEAR     71  67  87 CALM      30.07S
CARTERSVILLE   CLEAR     62  60  93 CALM      30.04R


CITY           SKY/WX    TMP DP  RH WIND       PRES   REMARKS
DALTON*        CLEAR     64  64 100 CALM      30.03S
$$

GAZ059>098-102>109-290900-
CENTRAL GEORGIA

CITY           SKY/WX    TMP DP  RH WIND       PRES   REMARKS
AUGUSTA-BUSH   CLEAR     64  62  93 CALM      30.03S
AUGUSTA-DANIEL CLEAR     72  65  78 CALM      30.04F
COLUMBUS       CLEAR     69  63  81 CALM      30.01R
MACON          CLEAR     69  64  84 CALM      30.02S
ROBINS AFB     CLEAR     66  64  91 SE2       30.02S


CITY           SKY/WX    TMP DP  RH WIND       PRES   REMARKS
LAGRANGE*      CLEAR     65  65  97 CALM      30.02S
SYLVANIA*      CLEAR     67  67 100 CALM      30.04S FOG
MILLEDGEVILLE* CLEAR     66  64  94 CALM      30.03S
$$

GAZ099>101-110>166-290900-
SOUTH GEORGIA

CITY           SKY/WX    TMP DP  RH WIND       PRES   REMARKS
SAVANNAH       PTCLDY    71  68  90 N3        30.02F
VALDOSTA       CLEAR     66  63  90 CALM      30.01F
ALMA           CLEAR     67  66  97 CALM      30.02F FOG
ST SIMONS      CLEAR     74  71  91 CALM      30.01F
FT STEWART     CLEAR     67  66  95 N3        30.01F
ALBANY         CLEAR     68  64  87 CALM      30.03S
HUNTER AFB     CLEAR     71  70  98 CALM      30.00F
MOODY AFB      CLEAR     67  64  91 CALM      30.02S
BRUNSWICK        N/A     70  68  94 CALM      30.03S VSB 3/4


CITY           SKY/WX    TMP DP  RH WIND       PRES   REMARKS
BAINBRIDGE*    CLEAR     73  70  88 CALM      30.01S
MOULTRIE*      CLEAR     68  64  88 CALM      30.03F
VIDALIA*         N/A     72  70  94 CALM      30.03F
WAYCROSS*      CLEAR     74  72  94 CALM      30.02S
DOUGLAS*       CLEAR     70  68  94 CALM      30.04S
$$



USA.gov is the U.S. government's official web portal to all federal, state and local government web resources and services.